Weather in Umet

Russia / Volgograd Oblast     50°17′06″N   45°20′31″E
temp.,
°C
wind,
m/s
gust,
m/s
humid.,
%
clouds,
%
prec.,
mm/h
press.,
hPa
HPBL,
m
27 july, tue
tue2700:00+18ne48520 0.0 1022125
03:00+17ne22530 0.0 102213
06:00+19ne23480 0.0 1022101
09:00+25ene34310 0.0 10211415
12:00+28ne34270 0.0 10202379
15:00+29n342629 0.0 10182762
18:00+28n333080 0.0 10181854
21:00+23ne2338100 0.0 101841
28 july, wed
wed2800:00+21wnw124510 0.0 101811
03:00+19nnw22545 0.0 101715
06:00+21nnw24530 0.0 1018109
09:00+26ne22402 0.0 10171070
12:00+28n233393 0.0 10162490
15:00+28ese223567 0.0 1016817
18:00+27e013799 0.0 101527
21:00+22ese22413 0.0 101513
29 july, thu
thu2900:00+21s22415 0.0 101512
03:00+20s224297 0.0 101413
06:00+22s2543100 0.0 1014130
09:00+28ssw6933100 0.0 1013785
12:00+33sw782416 0.0 10113166
15:00+34sw8102048 0.0 10103503
18:00+31w593165 0.0 1009740
21:00+24w385749 0.0 1010208
30 july, fri
fri3000:00+22w2265100 0.0 101031
03:00+21wsw34707 0.0 101060
06:00+23wnw36665 0.0 1011176
09:00+29wnw33439 0.0 1011838
12:00+33wsw453090 0.0 10103074
15:00+32w5632100 0.1 10092427
18:00+32w453455 0.0 10071049
21:00+21nnw71191100 5.8 1009286
31 july, sat
sat3100:00+23ssw2274100 0.6 100928
03:00+21ssw227987 0.6 101013
06:00+21sw127996 1.2 101084
09:00+28sw355090 1.6 1010647
12:00+32wsw45365 0.0 10091993
15:00+34wsw573094 0.0 10083122
18:00+33wsw35342 0.0 1007468
21:00+23ene237140 0.8 100941